Tracking 30918 objects as of 2-Jul-2025
HD Live streaming from Space Station
objects crossing your sky now

COSMOS 1375 DEB

Track COSMOS 1375 DEB now!
10-day predictions


NORAD ID: 16377
Int'l Code: 1982-055R
Perigee: 847.6 km
Apogee: 914.7 km
Inclination: 65.8 °
Period: 102.4 minutes
Semi major axis: 7252 km
RCS: 0.033 m2 (small)
Launch date: June 6, 1982
Source: Commonwealth of Independent States (former USSR) (CIS)
Launch site: PLESETSK MISSILE AND SPACE COMPLEX (PKMTR)

Note: This is SATELLITE DEBRIS
Your satellite tracking list
FENGYUN 1C DEB
Track 1 satellite(s)




NASA's NSSDC Master Catalog

Two Line Element Set (TLE):
1 16377U 82055R   25182.45305277  .00000989  00000-0  65282-3 0  9997
2 16377  65.8206 194.7491 0046299 224.2949 287.1149 14.05736245 17704
Source of the keplerian elements: AFSPC